1489554000.54,16897,10.0,73800.8,-5.53,-25.29,-27.45,0,*5A
1489554001.82,16898,10.0,73798.8,-5.53,-25.29,-27.45,0,*55
1489554003.04,16899,10.0,73802.0,-5.57,-25.35,-27.51,0,*58
1489554004.27,16900,10.0,73808.0,-5.55,-25.39,-27.45,0,*52
1489554005.49,16901,10.0,73806.8,-5.55,-25.45,-27.55,0,*59
1489554006.75,16902,10.0,73804.5,-5.57,-25.45,-27.67,0,*59
1489554008.01,16903,10.0,73806.0,-5.57,-25.49,-27.61,0,*52
1489554009.27,16904,10.0,73808.8,-5.55,-25.55,-27.61,0,*5A
1489554010.53,16905,10.0,73810.8,-5.53,-25.45,-27.55,0,*5B
1489554011.79,16906,10.0,73804.8,-5.55,-25.55,-27.61,0,*58
1489554013.0,16907,10.0,73802.5,-5.55,-25.61,-27.67,0,*58
1489554014.23,16908,10.0,73804.5,-5.57,-25.49,-27.77,0,*5E
1489554015.47,16909,10.0,73800.3,-5.55,-25.55,-27.77,0,*50
1489554016.7,16910,10.0,73796.8,-5.57,-25.49,-27.77,0,*57
1489554017.93,16911,10.0,73800.8,-5.55,-25.55,-27.77,0,*59
1489554019.19,16912,10.0,73800.3,-5.57,-25.61,-27.83,0,*54
1489554020.42,16913,10.0,73796.0,-5.57,-25.61,-27.77,0,*5E
1489554021.62,16914,10.0,73802.8,-5.55,-25.61,-27.77,0,*5B
1489554022.88,16915,10.0,73798.0,-5.57,-25.65,-27.83,0,*57
1489554024.14,16916,10.0,73802.5,-5.57,-25.75,-27.93,0,*54
1489554025.37,16917,10.0,73802.0,-5.55,-25.71,-27.89,0,*58
1489554026.66,16918,10.0,73800.3,-5.57,-25.75,-27.99,0,*50
1489554027.92,16919,10.0,73804.5,-5.57,-25.75,-27.93,0,*5B
1489554029.18,16920,10.0,73802.8,-5.57,-25.75,-27.93,0,*51
1489554030.43,16921,10.0,73800.5,-5.57,-25.81,-27.93,0,*5B
1489554031.72,16922,10.0,73794.5,-5.57,-25.81,-27.99,0,*52
1489554032.98,16923,10.0,73798.5,-5.61,-25.87,-28.05,0,*5A
1489554034.27,16924,10.0,73800.0,-5.61,-25.97,-28.05,0,*5C
1489554035.57,16925,10.0,73798.8,-5.61,-25.97,-28.05,0,*5D
1489554036.83,16926,10.0,73802.8,-5.61,-25.87,-28.21,0,*59
1489554038.1,16927,10.0,73796.3,-5.61,-26.13,-28.15,0,*51
1489554039.35,16928,10.0,73806.0,-5.61,-26.03,-28.15,0,*5F
1489554040.6,16929,10.0,73802.0,-5.61,-26.03,-28.15,0,*5E
1489554041.87,16930,10.0,73802.5,-5.61,-26.03,-28.21,0,*51
1489554043.12,16931,10.0,73806.3,-5.61,-26.03,-28.15,0,*57
1489554044.39,16932,10.0,73802.8,-5.61,-26.03,-28.21,0,*53
1489554045.63,16933,10.0,73802.5,-5.63,-26.13,-28.15,0,*56
1489554046.87,16934,10.0,73804.3,-5.63,-26.13,-28.15,0,*51
1489554048.11,16935,10.0,73806.3,-5.63,-26.17,-28.15,0,*54
1489554049.37,16936,10.0,73800.5,-5.63,-26.13,-28.21,0,*54
1489554050.64,16937,10.0,73802.3,-5.61,-26.17,-28.31,0,*52
1489554051.88,16938,10.0,73800.8,-5.63,-26.29,-28.37,0,*54
1489554053.12,16939,10.0,73804.5,-5.63,-26.33,-28.37,0,*5E
1489554054.36,16940,10.0,73804.8,-5.63,-26.17,-28.31,0,*50
1489554055.6,16941,10.0,73800.8,-5.63,-26.29,-28.31,0,*5C
1489554056.86,16942,10.0,73800.0,-5.63,-26.29,-28.21,0,*5E
1489554058.1,16943,10.0,73798.0,-5.63,-26.29,-28.37,0,*58
1489554059.34,16944,10.0,73802.8,-5.63,-26.33,-28.37,0,*54
1489554060.55,16945,10.0,73802.5,-5.63,-26.39,-28.37,0,*5F
1489554061.81,16946,10.0,73800.8,-5.63,-26.33,-28.43,0,*55
1489554063.05,16947,10.0,73802.0,-5.63,-26.33,-28.37,0,*57
1489554064.26,16948,10.0,73794.5,-5.63,-26.39,-28.37,0,*52
1489554065.51,16949,10.0,73794.8,-5.63,-26.33,-28.37,0,*59
1489554066.74,16950,10.0,73796.5,-5.63,-26.39,-28.43,0,*58
1489554067.97,16951,10.0,73794.0,-5.63,-26.39,-28.43,0,*59
1489554069.23,16952,10.0,73798.0,-5.65,-26.45,-28.47,0,*53
1489554070.48,16953,10.0,73794.0,-5.65,-26.45,-28.47,0,*52
1489554071.76,16954,10.0,73798.8,-5.65,-26.55,-28.47,0,*54
1489554073.01,16955,10.0,73798.8,-5.65,-26.61,-28.47,0,*52
1489554074.27,16956,10.0,73800.3,-5.65,-26.61,-28.47,0,*51
1489554075.52,16957,10.0,73794.0,-5.67,-26.55,-28.63,0,*53
1489554076.76,16958,10.0,73798.3,-5.67,-26.61,-28.63,0,*5B
1489554078.02,16959,10.0,73804.3,-5.65,-26.61,-28.63,0,*58
1489554079.28,16960,10.0,73802.3,-5.67,-26.55,-28.63,0,*57
1489554080.53,16961,10.0,73796.8,-5.67,-26.55,-28.47,0,*50
1489554081.78,16962,10.0,73800.5,-5.65,-26.61,-28.75,0,*57
1489554083.04,16963,10.0,73798.8,-5.65,-26.61,-28.63,0,*51
1489554084.27,16964,10.0,73802.3,-5.67,-26.61,-28.63,0,*54
1489554085.52,16965,10.0,73796.3,-5.67,-26.71,-28.79,0,*5F
1489554086.79,16966,10.0,73800.3,-5.65,-26.71,-28.75,0,*52
1489554088.05,16967,10.0,73796.3,-5.67,-26.71,-28.63,0,*56
1489554089.31,16968,10.0,73794.0,-5.67,-26.71,-28.63,0,*59
1489554090.56,16969,10.0,73792.8,-5.67,-26.71,-28.75,0,*5F
1489554091.78,16970,10.0,73796.3,-5.67,-26.61,-28.75,0,*56
1489554093.03,16971,10.0,73798.3,-5.67,-26.71,-28.79,0,*5A
1489554094.27,16972,10.0,73798.0,-5.67,-26.71,-28.75,0,*55
1489554095.52,16973,10.0,73798.3,-5.67,-26.71,-28.75,0,*54
1489554096.77,16974,10.0,73796.5,-5.67,-26.71,-28.79,0,*5F
1489554098.04,16975,10.0,73800.8,-5.69,-26.71,-28.75,0,*5C
1489554099.32,16976,10.0,73798.5,-5.69,-26.71,-28.79,0,*53
1489554100.59,16977,10.0,73792.0,-5.69,-26.71,-28.75,0,*5E
1489554101.87,16978,10.0,73790.3,-5.69,-26.77,-28.79,0,*5B
1489554103.15,16979,10.0,73796.3,-5.69,-26.77,-28.79,0,*5A
1489554104.43,16980,10.0,73794.0,-5.69,-26.77,-28.79,0,*5C
1489554105.71,16981,10.0,73800.8,-5.69,-26.77,-28.79,0,*5D
1489554106.96,16982,10.0,73798.5,-5.71,-26.93,-28.85,0,*5E
1489554108.22,16983,10.0,73794.0,-5.71,-26.77,-28.79,0,*56
1489554109.49,16984,10.0,73794.3,-5.69,-26.71,-28.79,0,*5E
1489554110.74,16985,10.0,73796.0,-5.71,-26.81,-28.85,0,*5A
1489554111.98,16986,9.94,73790.5,-5.71,-26.93,-28.85,0,*5A
1489554113.26,16987,9.94,73792.0,-5.69,-26.93,-28.91,0,*57
1489554114.53,16988,10.0,73790.8,-5.71,-26.93,-29.01,0,*59
1489554115.75,16989,10.0,73792.8,-5.69,-26.87,-28.97,0,*5A
1489554117.02,16990,10.0,73804.8,-5.71,-26.97,-29.01,0,*54
1489554118.28,16991,10.0,73792.3,-5.71,-26.93,-29.01,0,*51
1489554119.52,16992,10.0,73792.0,-5.71,-26.97,-28.97,0,*58
1489554120.78,16993,10.0,73798.3,-5.71,-26.97,-29.01,0,*57
1489554121.99,16994,10.0,73796.8,-5.71,-27.13,-28.97,0,*53
1489554123.25,16995,10.0,73798.3,-5.71,-26.97,-29.01,0,*51
1489554124.48,16996,10.0,73792.5,-5.73,-27.03,-29.07,0,*5A
1489554125.72,16997,10.0,73798.3,-5.71,-27.07,-29.01,0,*5B
1489554126.94,16998,10.0,73800.8,-5.73,-27.13,-29.07,0,*55
1489554128.17,16999,10.0,73798.8,-5.71,-27.07,-29.13,0,*56
1489554129.41,17000,10.0,73800.5,-5.71,-27.07,-29.01,0,*5D
1489554130.64,17001,10.0,73804.3,-5.73,-27.29,-29.23,0,*52
1489554131.92,17002,10.0,73798.0,-5.73,-27.35,-29.17,0,*5B
1489554133.16,17003,9.94,73792.3,-5.73,-27.19,-29.23,0,*53
1489554134.38,17004,10.0,73800.3,-5.75,-27.19,-29.23,0,*52
1489554135.64,17005,10.0,73796.3,-5.73,-27.29,-29.17,0,*51
1489554136.9,17006,9.94,73792.8,-5.73,-27.29,-29.17,0,*52
1489554138.15,17007,10.0,73796.8,-5.73,-27.35,-29.23,0,*59
1489554139.37,17008,10.0,73796.0,-5.75,-27.35,-29.23,0,*50
1489554140.6,17009,10.0,73796.8,-5.73,-27.29,-29.23,0,*5A
1489554141.83,17010,10.0,73798.0,-5.75,-27.35,-29.23,0,*59
1489554143.05,17011,10.0,73802.5,-5.75,-27.35,-29.23,0,*58
1489554144.27,17012,10.0,73798.0,-5.75,-27.35,-29.23,0,*5B
1489554145.53,17013,10.0,73796.3,-5.75,-27.35,-29.17,0,*5D
1489554146.78,17014,10.0,73800.5,-5.75,-27.45,-29.17,0,*5D
1489554148.05,17015,10.0,73794.0,-5.77,-27.39,-29.29,0,*58
1489554149.28,17016,10.0,73792.5,-5.75,-27.45,-29.23,0,*58
1489554150.49,17017,10.0,73788.8,-5.75,-27.51,-29.23,0,*5C
1489554151.69,17018,10.0,73798.8,-5.75,-27.51,-29.23,0,*53
1489554152.92,17019,10.0,73796.0,-5.75,-27.45,-29.23,0,*57
1489554154.17,17020,10.0,73788.3,-5.77,-27.55,-29.29,0,*54
1489554155.42,17021,10.0,73784.3,-5.77,-27.51,-29.29,0,*51
1489554156.64,17022,10.0,73794.3,-5.79,-27.51,-29.29,0,*5C
1489554157.89,17023,10.0,73798.0,-5.77,-27.55,-29.29,0,*57
1489554159.12,17024,10.0,73798.5,-5.79,-27.51,-29.29,0,*5A
1489554160.37,17025,10.0,73792.8,-5.77,-27.51,-29.29,0,*55
1489554161.59,17026,10.0,73790.5,-5.79,-27.55,-29.29,0,*5C
1489554162.84,17027,10.0,73790.3,-5.77,-27.55,-29.29,0,*53
1489554164.07,17028,10.0,73792.8,-5.79,-27.51,-29.29,0,*56
1489554165.35,17029,10.0,73800.0,-5.77,-27.61,-29.29,0,*5A
1489554166.61,17030,10.0,73796.5,-5.79,-27.61,-29.29,0,*5C
1489554167.84,17031,10.0,73784.3,-5.79,-27.55,-29.29,0,*5A
1489554169.07,17032,10.0,73784.0,-5.79,-27.55,-29.39,0,*58
1489554170.31,17033,10.0,73786.5,-5.83,-27.61,-29.45,0,*50
1489554171.53,17034,10.0,73788.0,-5.79,-27.51,-29.29,0,*5B
1489554172.76,17035,10.0,73786.5,-5.79,-27.55,-29.29,0,*5E
1489554173.98,17036,10.0,73794.5,-5.79,-27.55,-29.29,0,*5D
1489554175.21,17037,10.0,73792.3,-5.79,-27.71,-29.29,0,*5A
1489554176.44,17038,10.0,73788.0,-5.79,-27.71,-29.29,0,*55
1489554177.7,17039,10.0,73792.8,-5.79,-27.61,-29.29,0,*55
1489554178.96,17040,10.0,73794.3,-5.83,-27.61,-29.35,0,*53
1489554180.22,17041,10.0,73790.3,-5.79,-27.61,-29.29,0,*5A
1489554181.45,17042,10.0,73792.5,-5.79,-27.71,-29.29,0,*58
1489554182.71,17043,10.0,73790.5,-5.79,-27.61,-29.29,0,*58
1489554183.94,17044,10.0,73798.3,-5.83,-27.77,-29.35,0,*50
1489554185.18,17045,10.0,73792.8,-5.83,-27.77,-29.35,0,*51
1489554186.41,17046,10.0,73792.3,-5.83,-27.67,-29.35,0,*53
1489554187.67,17047,10.0,73794.5,-5.85,-27.67,-29.35,0,*54
1489554188.91,17048,10.0,73790.3,-5.83,-27.67,-29.35,0,*5D
1489554190.14,17049,10.0,73792.5,-5.83,-27.77,-29.35,0,*5D
1489554191.38,17050,10.0,73792.8,-5.83,-27.77,-29.35,0,*55
1489554192.61,17051,10.0,73786.3,-5.85,-27.77,-29.45,0,*55
1489554193.84,17052,10.0,73794.3,-5.85,-27.77,-29.45,0,*56
1489554195.07,17053,10.0,73794.8,-5.85,-27.77,-29.45,0,*57
1489554196.32,17054,10.0,73796.3,-5.85,-27.83,-29.45,0,*5B
1489554197.55,17055,10.0,73794.8,-5.83,-27.83,-29.45,0,*5C
1489554198.8,17056,10.0,73796.5,-5.85,-27.83,-29.45,0,*59
1489554200.05,17057,10.0,73794.8,-5.85,-27.83,-29.45,0,*58
1489554201.28,17058,10.0,73794.5,-5.83,-27.83,-29.45,0,*51
1489554202.51,17059,10.0,73794.5,-5.85,-27.77,-29.45,0,*5D
1489554203.75,17060,10.0,73792.3,-5.83,-27.93,-29.51,0,*5E
1489554205.0,17061,10.0,73802.0,-5.85,-27.83,-29.45,0,*5D
1489554206.25,17062,10.0,73806.8,-5.85,-27.93,-29.51,0,*5A
1489554207.51,17063,10.0,73796.0,-5.85,-27.83,-29.45,0,*5F
1489554208.76,17064,10.0,73780.3,-5.85,-27.77,-29.35,0,*54
1489554210.04,17065,10.0,73784.3,-5.85,-27.83,-29.35,0,*5E
1489554211.3,17066,10.0,73786.3,-5.83,-27.83,-29.35,0,*5B
1489554212.53,17067,10.0,73790.0,-5.87,-27.89,-29.39,0,*58
1489554213.79,17068,10.0,73792.5,-5.87,-27.99,-29.51,0,*58
1489554215.0,17069,10.0,73798.3,-5.87,-27.89,-29.57,0,*5E
1489554216.27,17070,10.0,73794.0,-5.85,-27.83,-29.35,0,*5A
1489554217.51,17071,10.0,73794.8,-5.85,-27.93,-29.45,0,*5D
1489554218.76,17072,10.0,73794.3,-5.85,-27.83,-29.45,0,*5F
1489554219.99,17073,10.0,73792.0,-5.85,-27.93,-29.45,0,*5F
1489554221.25,17074,10.0,73788.8,-5.87,-27.99,-29.51,0,*55
1489554222.51,17075,10.0,73794.0,-5.87,-27.99,-29.51,0,*54
1489554223.77,17076,10.0,73792.8,-5.87,-27.99,-29.51,0,*57
1489554225.01,17077,10.0,73790.0,-5.87,-27.99,-29.57,0,*50
1489554226.27,17078,10.0,73792.5,-5.87,-27.99,-29.51,0,*59
1489554227.53,17079,10.0,73784.3,-5.87,-27.99,-29.51,0,*58
1489554228.79,17080,10.0,73790.0,-5.87,-27.99,-29.51,0,*5E
1489554230.05,17081,10.0,73798.5,-5.87,-27.99,-29.51,0,*5F
1489554231.34,17082,10.0,73778.8,-5.89,-27.99,-29.51,0,*52
1489554232.62,17083,10.0,73780.0,-5.89,-27.99,-29.51,0,*53
1489554233.86,17084,10.0,73788.0,-5.89,-27.89,-29.57,0,*53
1489554235.09,17085,10.0,73786.8,-5.87,-27.89,-29.51,0,*5A
1489554236.35,17086,10.0,73792.8,-5.89,-27.89,-29.51,0,*57
1489554237.61,17087,10.0,73790.5,-5.87,-27.99,-29.51,0,*59
1489554238.9,17088,10.0,73786.3,-5.89,-27.99,-29.51,0,*58
1489554240.16,17089,10.0,73786.8,-5.89,-27.99,-29.57,0,*5F
1489554241.45,17090,10.0,73782.8,-5.89,-28.05,-29.51,0,*5B
1489554242.71,17091,10.0,73794.3,-5.89,-27.89,-29.51,0,*51
1489554243.99,17092,10.0,73790.8,-5.89,-27.99,-29.51,0,*53
1489554245.25,17093,10.0,73792.3,-5.89,-27.89,-29.51,0,*53
1489554246.51,17094,10.0,73788.8,-5.89,-27.89,-29.51,0,*54
1489554247.77,17095,10.0,73788.3,-5.87,-27.99,-29.51,0,*5A
1489554249.03,17096,10.0,73786.5,-5.89,-27.99,-29.57,0,*51
1489554250.32,17097,10.0,73796.8,-5.89,-28.05,-29.51,0,*5C
1489554251.6,17098,10.0,73794.3,-5.89,-27.99,-29.51,0,*59
1489554252.84,17099,10.0,73792.8,-5.91,-28.05,-29.57,0,*5D
1489554254.13,17100,10.0,73794.8,-5.89,-27.99,-29.51,0,*59
1489554255.41,17101,10.0,73794.0,-5.89,-27.99,-29.51,0,*58
1489554256.67,17102,10.0,73796.8,-5.89,-27.99,-29.57,0,*5D
1489554257.91,17103,10.0,73796.8,-5.91,-28.05,-29.57,0,*5F
1489554259.14,17104,10.0,73788.3,-5.93,-28.15,-29.61,0,*5E
1489554260.38,17105,10.0,73790.0,-5.91,-28.09,-29.61,0,*50
1489554261.61,17106,10.0,73784.3,-5.91,-28.09,-29.61,0,*53
1489554262.84,17107,10.0,73788.8,-5.91,-28.09,-29.61,0,*52
1489554264.08,17108,10.0,73786.3,-5.91,-28.09,-29.61,0,*5D
1489554265.31,17109,10.0,73790.3,-5.91,-28.09,-29.57,0,*59
1489554266.55,17110,10.0,73786.5,-5.91,-28.25,-29.61,0,*5A
1489554267.78,17111,10.0,73792.0,-5.91,-28.09,-29.57,0,*50
1489554269.02,17112,10.0,73794.3,-5.91,-28.09,-29.57,0,*53
1489554270.28,17113,10.0,73794.8,-5.93,-28.09,-29.57,0,*50
1489554271.52,17114,10.0,73792.0,-5.91,-28.21,-29.61,0,*5A
1489554272.79,17115,10.0,73794.0,-5.93,-28.25,-29.67,0,*5B
1489554274.02,17116,10.0,73788.3,-5.93,-28.15,-29.79,0,*54
1489554275.25,17117,10.0,73786.8,-5.91,-28.21,-29.61,0,*59
1489554276.49,17118,10.0,73790.8,-5.93,-28.31,-29.67,0,*53
1489554277.73,17119,10.0,73786.3,-5.93,-28.15,-29.67,0,*54
1489554278.96,17120,10.0,73788.3,-5.91,-28.21,-29.61,0,*5D
1489554280.2,17121,10.0,73796.0,-5.91,-28.09,-29.57,0,*53
1489554281.47,17122,10.0,73788.5,-5.93,-28.25,-29.67,0,*5F
1489554282.7,17123,10.0,73784.3,-5.91,-28.21,-29.61,0,*5E
1489554283.94,17124,10.0,73786.3,-5.93,-28.15,-29.67,0,*5A
1489554285.17,17125,10.0,73784.0,-5.95,-28.25,-29.79,0,*51
1489554286.41,17126,10.0,73792.0,-5.93,-28.15,-29.67,0,*58
1489554287.65,17127,10.0,73794.8,-5.93,-28.15,-29.67,0,*59
1489554288.88,17128,10.0,73794.3,-5.93,-28.15,-29.61,0,*50
1489554290.14,17129,10.0,73792.5,-5.91,-28.21,-29.73,0,*57
1489554291.36,17130,10.0,73794.5,-5.95,-28.31,-29.67,0,*5F
1489554292.62,17131,10.0,73794.0,-5.93,-28.25,-29.67,0,*5D
1489554293.85,17132,10.0,73794.8,-5.93,-28.15,-29.61,0,*5B
1489554295.07,17133,10.0,73792.0,-5.95,-28.15,-29.67,0,*5A
1489554296.28,17134,10.0,73792.3,-5.95,-28.15,-29.61,0,*5B
1489554297.49,17135,10.0,73794.5,-5.95,-28.15,-29.61,0,*5A
1489554298.7,17136,10.0,73790.5,-5.95,-28.15,-29.61,0,*59
1489554299.91,17137,10.0,73794.5,-5.95,-28.15,-29.67,0,*5E
1489554301.15,17138,10.0,73790.5,-5.95,-28.25,-29.79,0,*5D
1489554302.41,17139,10.0,73788.0,-5.93,-28.25,-29.67,0,*55
1489554303.61,17140,10.0,73796.0,-5.97,-28.15,-29.79,0,*53
1489554304.85,17141,10.0,73792.5,-5.97,-28.25,-29.67,0,*5E
1489554306.08,17142,10.0,73784.3,-5.97,-28.25,-29.61,0,*5B
1489554307.31,17143,10.0,73794.5,-5.97,-28.25,-29.67,0,*5C
1489554308.55,17144,10.0,73790.8,-5.95,-28.25,-29.79,0,*56
1489554309.78,17145,10.0,73794.5,-5.97,-28.25,-29.83,0,*50
1489554311.03,17146,10.0,73794.3,-5.95,-28.25,-29.83,0,*51
1489554312.22,17147,10.0,73790.0,-5.97,-28.31,-29.79,0,*52
1489554313.44,17148,10.0,73790.0,-5.95,-28.31,-29.83,0,*5A
1489554314.67,17149,10.0,73788.8,-5.97,-28.25,-29.79,0,*59
1489554315.9,17150,10.0,73792.3,-5.97,-28.25,-29.83,0,*54
1489554317.13,17151,10.0,73788.0,-5.97,-28.25,-29.79,0,*50
1489554318.34,17152,10.0,73796.8,-5.95,-28.31,-29.95,0,*56
1489554319.58,17153,10.0,73792.8,-5.95,-28.25,-29.79,0,*50
1489554320.82,17154,10.0,73790.3,-5.95,-28.43,-29.83,0,*52
1489554322.05,17155,10.0,73792.3,-5.95,-28.43,-29.83,0,*53
1489554323.28,17156,10.0,73790.8,-5.97,-28.25,-29.79,0,*57
1489554324.51,17157,10.0,73796.5,-5.97,-28.43,-29.83,0,*53
1489554325.74,17158,10.0,73790.5,-5.97,-28.43,-29.95,0,*5B
1489554326.94,17159,10.0,73790.8,-5.97,-28.31,-29.95,0,*5F
1489554328.16,17160,10.0,73796.8,-5.97,-28.43,-29.95,0,*50
1489554329.37,17161,10.0,73792.5,-5.97,-28.31,-29.95,0,*54
1489554330.59,17162,10.0,73786.5,-5.97,-28.47,-29.95,0,*56
1489554331.82,17163,10.0,73784.0,-5.97,-28.43,-29.95,0,*53
1489554333.02,17164,10.0,73788.5,-5.97,-28.31,-29.95,0,*51
1489554334.22,17165,10.0,73790.3,-5.97,-28.31,-29.83,0,*57
1489554335.43,17166,10.0,73792.5,-5.97,-28.31,-29.83,0,*54
1489554336.66,17167,10.0,73794.8,-5.97,-28.43,-29.83,0,*50
1489554337.91,17168,10.0,73790.0,-5.97,-28.43,-30.01,0,*5D
1489554339.11,17169,10.0,73796.3,-5.97,-28.31,-29.95,0,*5C
1489554340.36,17170,10.0,73802.0,-6.01,-28.47,-30.05,0,*58
1489554341.64,17171,10.0,73794.3,-5.99,-28.47,-30.01,0,*5F
1489554342.89,17172,10.0,73784.5,-5.99,-28.37,-30.01,0,*5B
1489554344.17,17173,10.0,73790.0,-5.99,-28.47,-30.05,0,*59
1489554345.4,17174,10.0,73792.5,-5.97,-28.31,-30.01,0,*55
1489554346.67,17175,10.0,73786.3,-5.99,-28.47,-30.05,0,*5F
1489554347.93,17176,10.0,73786.5,-5.99,-28.37,-29.89,0,*57
1489554349.18,17177,10.0,73784.8,-6.01,-28.47,-30.05,0,*5F
1489554350.43,17178,10.0,73778.8,-5.99,-28.37,-30.01,0,*51
1489554351.68,17179,10.0,73784.8,-6.01,-28.47,-30.05,0,*51
1489554352.96,17180,10.0,73786.0,-5.99,-28.47,-30.01,0,*51
1489554354.19,17181,10.0,73788.8,-6.01,-28.53,-30.05,0,*53
1489554355.42,17182,10.0,73796.5,-6.01,-28.53,-30.01,0,*54
1489554356.66,17183,10.0,73792.5,-6.01,-28.53,-30.05,0,*51
1489554357.91,17184,10.0,73790.8,-6.01,-28.47,-30.01,0,*57
1489554359.18,17185,10.0,73790.5,-5.99,-28.47,-30.01,0,*54
1489554360.42,17186,10.0,73790.3,-6.01,-28.53,-30.05,0,*54
1489554361.66,17187,10.0,73798.0,-6.01,-28.47,-30.05,0,*50
1489554362.89,17188,10.0,73792.3,-6.01,-28.53,-30.05,0,*5A
1489554364.15,17189,10.0,73792.3,-6.01,-28.47,-30.01,0,*5A
1489554365.4,17190,10.0,73788.8,-6.01,-28.47,-30.01,0,*52
1489554366.65,17191,10.0,73788.5,-6.01,-28.47,-30.05,0,*57
1489554367.88,17192,10.0,73788.5,-6.01,-28.53,-29.89,0,*5D
1489554369.14,17193,10.0,73794.0,-6.01,-28.47,-29.89,0,*59
1489554370.39,17194,10.0,73794.3,-6.01,-28.47,-30.01,0,*56
1489554371.67,17195,10.0,73788.3,-5.99,-28.47,-29.89,0,*5D
1489554372.9,17196,10.0,73790.5,-6.05,-28.53,-30.05,0,*51
1489554374.15,17197,10.0,73790.8,-6.01,-28.47,-30.01,0,*55
1489554375.41,17198,10.0,73786.0,-5.99,-28.37,-29.89,0,*57
1489554376.67,17199,10.0,73782.0,-6.01,-28.47,-30.01,0,*5B
1489554377.9,17200,10.0,73790.3,-6.01,-28.37,-29.89,0,*57
1489554379.15,17201,10.0,73790.5,-6.01,-28.47,-30.01,0,*59
1489554380.39,17202,10.0,73786.8,-6.01,-28.53,-30.01,0,*5F
1489554381.62,17203,10.0,73788.8,-6.01,-28.53,-30.01,0,*5E
1489554382.86,17204,10.0,73794.8,-6.05,-28.69,-30.05,0,*50
1489554384.11,17205,10.0,73788.0,-6.05,-28.59,-30.05,0,*52
1489554385.37,17206,10.0,73790.5,-6.05,-28.43,-30.05,0,*5A
1489554386.57,17207,10.0,73788.3,-6.05,-28.69,-30.11,0,*56
1489554387.8,17208,10.0,73794.3,-6.05,-28.59,-30.11,0,*5A
1489554389.04,17209,10.0,73790.5,-6.05,-28.69,-30.17,0,*5E
1489554390.28,17210,10.0,73792.3,-6.05,-28.69,-30.17,0,*56
1489554391.54,17211,10.0,73796.0,-6.07,-28.63,-30.11,0,*59
1489554392.79,17212,10.0,73794.8,-6.05,-28.59,-30.05,0,*54
1489554394.09,17213,10.0,73786.0,-6.07,-28.63,-30.17,0,*5D
1489554395.34,17214,10.0,73788.8,-6.05,-28.59,-30.05,0,*52
1489554396.6,17215,10.0,73792.0,-6.07,-28.63,-30.11,0,*5D
1489554397.86,17216,10.0,73800.5,-6.05,-28.59,-30.05,0,*50
1489554399.14,17217,10.0,73798.3,-6.07,-28.47,-30.01,0,*58
1489554400.43,17218,10.0,73790.8,-6.07,-28.59,-30.05,0,*5C
1489554401.66,17219,10.0,73786.5,-6.05,-28.59,-30.11,0,*5A
1489554402.86,17220,10.0,73794.0,-6.05,-28.69,-30.11,0,*53
1489554404.07,17221,10.0,73792.8,-6.05,-28.69,-30.11,0,*52
1489554405.27,17222,10.0,73792.8,-6.05,-28.69,-30.11,0,*51
1489554406.56,17223,10.0,73784.0,-6.07,-28.75,-30.17,0,*59
1489554407.81,17224,10.0,73780.5,-6.07,-28.75,-30.11,0,*58
1489554409.07,17225,10.0,73780.8,-6.05,-28.63,-30.05,0,*59
1489554410.33,17226,10.0,73786.5,-6.05,-28.59,-30.05,0,*53
1489554411.59,17227,10.0,73792.3,-6.05,-28.59,-30.05,0,*52
1489554412.88,17228,10.0,73790.8,-6.07,-28.63,-30.17,0,*55
1489554414.11,17229,10.0,73790.0,-6.05,-28.75,-30.11,0,*57
1489554415.34,17230,10.0,73788.0,-6.05,-28.75,-30.11,0,*5F
1489554416.54,17231,10.0,73792.3,-6.05,-28.69,-30.11,0,*53
1489554417.75,17232,10.0,73790.0,-6.05,-28.69,-30.11,0,*50
1489554418.95,17233,10.0,73794.8,-6.05,-28.69,-30.11,0,*51
1489554420.21,17234,10.0,73790.8,-6.07,-28.79,-30.11,0,*55
1489554421.47,17235,10.0,73794.3,-6.07,-28.79,-30.23,0,*55
1489554422.73,17236,10.0,73790.8,-6.07,-28.63,-30.23,0,*5D
1489554423.98,17237,10.0,73790.0,-6.07,-28.75,-30.11,0,*5A
1489554425.28,17238,10.0,73786.8,-6.07,-28.79,-30.17,0,*5F
1489554426.51,17239,10.0,73790.5,-6.05,-28.75,-30.27,0,*53
1489554427.75,17240,10.0,73790.8,-6.05,-28.85,-30.17,0,*51
1489554429.02,17241,10.0,73784.3,-6.05,-28.91,-30.17,0,*55
1489554430.28,17242,10.0,73788.5,-6.05,-28.75,-30.17,0,*5C
1489554431.55,17243,10.0,73788.0,-6.07,-28.91,-30.23,0,*52
1489554432.81,17244,10.0,73784.8,-6.05,-28.75,-30.17,0,*5A
1489554434.04,17245,10.0,73784.5,-6.01,-28.79,-30.23,0,*54
1489554435.28,17246,10.0,73790.3,-6.07,-28.97,-30.33,0,*50
1489554436.51,17247,10.0,73794.8,-6.07,-28.97,-30.23,0,*50
1489554437.77,17248,10.0,73790.8,-6.07,-28.79,-30.23,0,*5F
1489554439.04,17249,10.0,73792.8,-6.07,-28.91,-30.33,0,*59
1489554440.3,17250,10.0,73786.8,-6.07,-28.79,-30.23,0,*56
1489554441.59,17251,10.0,73792.0,-6.07,-28.79,-30.17,0,*50
1489554442.83,17252,10.0,73792.0,-6.05,-28.91,-30.27,0,*54
1489554444.07,17253,10.0,73788.5,-6.07,-28.97,-30.23,0,*55
1489554445.33,17254,10.0,73790.0,-6.07,-29.01,-30.33,0,*5D
1489554446.62,17255,10.0,73790.3,-6.07,-29.01,-30.39,0,*56
1489554447.85,17256,10.0,73792.0,-6.05,-28.75,-30.11,0,*5F
1489554449.11,17257,10.0,73790.5,-6.07,-28.91,-30.23,0,*57
1489554450.35,17258,10.0,73790.8,-6.05,-28.85,-30.17,0,*58
1489554451.59,17259,10.0,73792.5,-6.05,-28.91,-30.27,0,*5F
1489554452.83,17260,10.0,73798.3,-6.07,-28.97,-30.23,0,*55
1489554454.09,17261,10.0,73798.8,-6.07,-29.01,-30.33,0,*5B
1489554455.36,17262,10.0,73790.8,-6.05,-28.91,-30.17,0,*54
1489554456.6,17263,10.0,73790.8,-6.07,-28.97,-30.23,0,*56
1489554457.86,17264,10.0,73798.0,-6.05,-28.91,-30.17,0,*52
1489554459.15,17265,10.0,73798.0,-6.07,-29.01,-30.39,0,*55
1489554460.44,17266,10.0,73796.0,-6.07,-29.01,-30.51,0,*58
1489554461.72,17267,10.0,73796.5,-6.07,-29.01,-30.39,0,*57
1489554462.96,17268,10.0,73796.5,-6.07,-28.97,-30.33,0,*5C
1489554464.23,17269,10.0,73796.8,-6.07,-29.01,-30.33,0,*53
1489554465.49,17270,10.0,73800.0,-6.07,-29.13,-30.33,0,*58
1489554466.78,17271,10.0,73802.0,-6.07,-29.01,-30.39,0,*50
1489554468.02,17272,10.0,73798.3,-6.05,-29.01,-30.33,0,*5B
1489554469.29,17273,10.0,73800.0,-6.07,-29.01,-30.33,0,*58
1489554470.53,17274,10.0,73802.3,-6.07,-28.97,-30.33,0,*51
1489554471.79,17275,10.0,73798.5,-6.07,-29.01,-30.33,0,*5E
1489554473.08,17276,10.0,73798.0,-6.07,-29.13,-30.51,0,*5A
1489554474.36,17277,10.0,73802.8,-6.07,-29.13,-30.39,0,*55
1489554475.57,17278,10.0,73798.8,-6.05,-29.07,-30.27,0,*52
1489554476.81,17279,10.0,73798.5,-6.05,-29.01,-30.33,0,*50
1489554478.09,17280,10.0,73798.3,-6.07,-29.17,-30.51,0,*57
1489554479.36,17281,10.0,73802.0,-6.07,-29.17,-30.33,0,*52
1489554480.62,17282,10.0,73798.0,-6.07,-29.01,-30.33,0,*56
1489554481.92,17283,10.0,73802.8,-6.07,-29.01,-30.17,0,*51
1489554483.18,17284,10.0,73808.3,-6.07,-29.17,-30.33,0,*57
1489554484.45,17285,10.0,73804.0,-6.07,-29.17,-30.33,0,*56
1489554485.73,17286,10.0,73796.3,-6.07,-29.17,-30.39,0,*5F
1489554487.01,17287,10.0,73792.8,-6.07,-29.17,-30.39,0,*5E
1489554488.3,17288,10.0,73794.3,-6.07,-29.17,-30.39,0,*51
1489554489.56,17289,10.0,73798.3,-6.07,-29.17,-30.33,0,*5A
1489554490.83,17290,10.0,73798.0,-6.07,-29.13,-30.33,0,*56
1489554492.04,17291,10.0,73798.0,-6.05,-29.23,-30.45,0,*57
1489554493.32,17292,10.0,73798.8,-6.07,-29.29,-30.55,0,*5D
1489554494.6,17293,10.0,73798.5,-6.07,-29.29,-30.39,0,*56
1489554495.87,17294,10.0,73794.8,-6.07,-29.29,-30.67,0,*5A
1489554497.15,17295,10.0,73796.5,-6.07,-29.29,-30.55,0,*5A
1489554498.45,17296,10.0,73802.8,-6.07,-29.35,-30.51,0,*50
1489554499.73,17297,10.0,73804.8,-6.07,-29.29,-30.39,0,*52
1489554501.01,17298,10.0,73802.8,-6.07,-29.29,-30.39,0,*5D
1489554502.3,17299,10.0,73796.5,-6.07,-29.29,-30.51,0,*52
1489554503.59,17300,10.0,73792.5,-6.07,-29.35,-30.51,0,*5E
1489554504.85,17301,10.0,73792.5,-6.09,-29.29,-30.51,0,*5C
1489554506.1,17302,10.0,73802.0,-6.09,-29.29,-30.51,0,*5F
1489554507.34,17303,10.0,73798.5,-6.09,-29.45,-30.55,0,*50